Regional Weather Roundup
Issued by NWS

Home | Current Version | Previous Version | Graphics & Text | Print | Product List | Glossary On
Versions: 1 2 3 4 5 6 7 8 9 10 11 12 13 14 15 16 17 18 19 20 21 22 23 24 25 26 27 28 29 30 31 32 33 34 35 36 37 38 39 40 41 42 43 44 45 46 47 48 49 50
000
ASUS43 KIND 230409
RWRIN

WEATHER ROUNDUP FOR INDIANA
NATIONAL WEATHER SERVICE INDIANAPOLIS IN
1200 AM EDT SAT AUG 23 2014

NOTE: "FAIR" INDICATES FEW OR NO CLOUDS BELOW 12,000 FEET WITH NO
SIGNIFICANT WEATHER AND/OR OBSTRUCTIONS TO VISIBILITY.

* - STATION DOES NOT REPORT WEATHER SUCH AS PRECIPITATION OR FOG.

+ - STATION NOT QUALITY CONTROLLED BY THE NATIONAL WEATHER SERVICE.
    USE DATA WITH CAUTION...ESPECIALLY DEWPOINT AND RELATIVE
    HUMIDITY OBSERVATIONS.

INZ001>003-010>013-019-020-230500-
NORTHWEST INDIANA

CITY           SKY/WX    TMP DP  RH WIND       PRES   REMARKS
GARY /AIRPORT/ CLEAR     76  73  91 CALM      30.00R
KNOX *+        PTCLDY    71  69  92 CALM      29.99S
LA PORTE +     PTCLDY    73  73 100 CALM      30.01S
MICHIGAN CITY+ PTCLDY    73  73 100 CALM      30.00S
MONTICELLO +   CLEAR     72  71  99 CALM      30.00S
RENSSELAER +   CLEAR     72  72 100 CALM      30.01R FOG
VALPARAISO     PTCLDY    73  70  90 CALM      30.01R

$$

LMZ046-743>745-230500-
SOUTHERN LAKE MICHIGAN

STATION/POSITION TIME  TEMP WIND        PRES
                       AIR  DIR/SP/G
                 (UTC) (F)  (DEG/KT/KT) (MB)
MICHIGAN CITY    0400   76   30/  2/  3   N/A

$$

INZ004-005-014>016-021>024-230500-
NORTH CENTRAL INDIANA

CITY           SKY/WX    TMP DP  RH WIND       PRES   REMARKS
GOSHEN         PTCLDY    78  74  87 SW6       30.00R FOG
LOGANSPORT +   PTCLDY    72  70  94 SW3       30.02S
PERU/GRISSOM   CLOUDY    76  76 100 SW6       30.01S
ROCHESTER +    CLEAR     77  73  88 CALM      30.01S
SOUTH BEND     PTCLDY    77  74  90 CALM      30.01R
WARSAW +       MOCLDY    75  73  94 W5        30.01R

$$

INZ006>009-017-018-025>027-230500-
NORTHEAST INDIANA

CITY           SKY/WX    TMP DP  RH WIND       PRES   REMARKS
ANGOLA *+      MOCLDY    72  64  78 CALM      30.02R
AUBURN +       PTCLDY    73  70  88 CALM      30.03R
FORT WAYNE     TSTM      74  72  93 NW12      30.01R FOG
HUNTINGTON +   MOCLDY    73  72  98 CALM      30.00S

$$

INZ028-029-035-036-043>045-051>053-230500-
WEST CENTRAL INDIANA

CITY           SKY/WX    TMP DP  RH WIND       PRES   REMARKS
GREENCASTLE +  CLEAR     73  72  94 CALM      30.02S FOG
LAFAYETTE      CLEAR     71  71 100 CALM      30.00S
TERRE HAUTE    CLEAR     72  71  97 NE5       30.00R

$$

INZ030>032-037>040-046>048-054>057-064-065-230500-
CENTRAL INDIANA

CITY           SKY/WX    TMP DP  RH WIND       PRES   REMARKS
CP ATTERBURY + PTCLDY    72  70  94 CALM      30.01F FOG
FRANKFORT +    CLEAR    N/A N/A N/A CALM      30.03S HAZE
INDIANAPOLIS   PTCLDY    76  70  82 CALM      30.00F
-EAGLE CREEK   CLEAR     75  71  87 CALM      30.01S
KOKOMO *+      MOCLDY    75  72  88 SW5       30.01S
MARION +       CLOUDY    71  70  98 CALM      30.02R
MT COMFORT *+  CLEAR     70 N/A N/A CALM      30.02F
SHELBYVILLE    CLEAR     74  70  87 N3        30.00F
ZIONSVILLE +   FOG       71  68  90 CALM      30.03S VSB 1/2

$$

INZ033-034-041-042-049-050-058-059-230500-
EAST CENTRAL INDIANA

CITY           SKY/WX    TMP DP  RH WIND       PRES   REMARKS
MUNCIE         CLEAR     73  71  93 CALM      30.02S

$$

INZ060-061-067>069-081>083-085>088-230500-
SOUTHWEST INDIANA

CITY           SKY/WX    TMP DP  RH WIND       PRES   REMARKS
EVANSVILLE     MOCLDY    82  77  84 NE3       29.98F
WASHINGTON +   TSTM      75  74  99 S5        30.00R

$$

INZ062-063-066-070>080-084-089>092-230500-
SOUTH CENTRAL AND SOUTHEAST INDIANA

CITY           SKY/WX    TMP DP  RH WIND       PRES   REMARKS
BLOOMINGTON    FOG       74  72  93 CALM      30.02R VSB 1/4

$$




USA.gov is the U.S. government's official web portal to all federal, state and local government web resources and services.